Regional Weather Roundup
Issued by NWS

Home | Current Version | Previous Version | Text Only | Print | Product List | Glossary On
Versions: 1 2 3 4 5 6 7 8 9 10 11 12 13 14 15 16 17 18 19 20 21 22 23 24 25 26 27 28 29 30 31 32 33 34 35 36 37 38 39 40 41 42 43 44 45 46 47 48 49 50
000
ASUS44 KFWD 250310
RWRTX
NORTH TEXAS HOURLY WEATHER ROUNDUP
NATIONAL WEATHER SERVICE FORT WORTH TX
900 PM CST FRI NOV 24 2017

NOTE: "FAIR" INDICATES FEW OR NO CLOUDS BELOW 12,000 FEET WITH NO
SIGNIFICANT WEATHER AND/OR OBSTRUCTIONS TO VISIBILITY.

TXZ118-119-250400-
DALLAS/FORT WORTH METROPLEX

CITY           SKY/WX    TMP DP  RH WIND       PRES   REMARKS
DFW AIRPORT    PTCLDY    65  37  35 S13       29.80R
DALLAS LOVE    PTCLDY    65  37  35 S14       29.82R
FTW MEACHAM    CLEAR     65  39  38 S12       29.79R
DAL-EXECUTIVE  CLEAR     63  38  39 S10       29.81R
FTW-ALLIANCE   CLEAR     63  38  39 S8        29.79R
FTW-NAS-JRB    CLEAR     66  36  32 S14       29.80R
FTW-SPINKS     CLEAR     63  37  37 S8        29.82R
ARLINGTON      CLEAR     62  38  40 S12       29.81R
GRAND PRAIRIE  CLEAR     64  36  34 S9        29.82S
ADDISON        CLEAR     64  36  34 SE12G24   29.82R
MESQUITE       CLEAR     60  38  44 S12       29.83S
LANCASTER      CLEAR     60  37  42 S9        29.84S
$$

TXZ091>094-102>105-117-120-121-131>134-250400-
NORTH CENTRAL TEXAS

CITY           SKY/WX    TMP DP  RH WIND       PRES   REMARKS
SHRMAN/DENISON CLEAR     62  38  40 S13G18    29.81R
GAINESVILLE    CLEAR     58  40  49 SE8       29.80S
BOWIE          CLEAR     63  38  39 SE9       29.77S
BRIDGEPORT     CLEAR     63  36  36 SE3       29.79R
DECATUR        CLEAR     64  38  38 S14       29.77S
DENTON         CLEAR     60  39  45 S10       29.80R
MCKINNEY       CLEAR     60  40  47 S12       29.82R
BONHAM         CLEAR     58  38  48 SE9       29.83R
GREENVILLE     CLEAR     61  41  48 S7        29.85R
ROCKWALL       CLEAR     61  40  45 S9G16     29.83S
TERRELL        CLEAR     56  40  55 S9        29.84R
WAXAHACHIE     CLEAR     59  39  48 S6        29.84S
CLEBURNE       CLEAR     61  37  41 S12       29.83R
GRANBURY       CLEAR     62  40  45 SE8       29.80S
$$

TXZ083>090-098>101-113>116-127>130-139>142-154-155-250400-
WESTERN NORTH TEXAS

CITY           SKY/WX    TMP DP  RH WIND       PRES   REMARKS
WICHITA FALLS  CLEAR     55  36  48 S12       29.72R
WF-KICKAPOO    CLEAR     59  37  43 SE10G16   29.75R
VERNON         CLEAR     59  33  36 CALM      29.71R
ABILENE        CLEAR     66  36  32 S13       29.77R
ABILENE-DYESS  CLEAR     68  38  34 SW17      29.76R
GRAHAM           N/A     65  36  33 SE5       29.73S
BRECKENRIDGE   CLEAR     66  33  29 S12       29.75R
CISCO          CLEAR     63  36  36 S10G17    29.79S
EASTLAND       CLEAR     58  36  44 SE6       29.78S
RANGER         CLEAR     63  37  38 S13G18    29.78F
MINERAL WELLS  CLEAR     59  36  42 SE13      29.76S
STEPHENVILLE   CLEAR     58  38  46 S8        29.83R
COMANCHE       CLEAR     63  38  39 S13       29.81R
BROWNWOOD      MOCLDY    59  36  41 S7        29.82R
COLEMAN        CLEAR     61  35  38 SW8       29.81R
$$

TXZ143>147-156>162-174-175-250400-
CENTRAL TEXAS

CITY           SKY/WX    TMP DP  RH WIND       PRES   REMARKS
WACO           CLEAR     62  41  46 S14       29.84R
WACO-TSTC      CLEAR     59  37  44 S8        29.85R
WACO-MCGREGOR  CLEAR     60  37  42 S8        29.85R
HILLSBORO      CLEAR     62  39  42 S10       29.83R
CORSICANA      CLEAR     55  41  59 SE9       29.86S
MEXIA          PTCLDY    56  38  51 SE9       29.86R
HEARNE         PTCLDY    58  40  52 SE7       29.89R
CAMERON        CLEAR     60  40  47 S8        29.86S
TEMPLE         CLOUDY    59  37  44 S8        29.86R
KILLEEN        CLEAR     58  38  47 S9        29.84R
KILLEEN-SKYLRK CLOUDY    57  38  48 S5        29.86R
FORT HOOD      CLEAR     60  38  44 S8        29.82R
GATESVILLE     CLEAR     59  37  44 SE3       29.86R
HAMILTON       CLEAR     57  40  52 S10       29.84R
LAMPASAS       CLEAR     58  39  49 CALM      29.84R
$$

TXZ095>097-106>112-122>126-135>138-148>153-164>167-250400-
EAST TEXAS

CITY           SKY/WX    TMP DP  RH WIND       PRES   REMARKS
PARIS          CLEAR     53  39  59 SE9       29.86R
SULPHUR SPRNGS CLEAR     61  40  46 S9        29.87R
MOUNT PLEASANT CLEAR     55  39  55 SE7       29.89R
GILMER         CLEAR     57  40  53 S3        29.89R
MINEOLA        CLEAR     59  39  47 SE7       29.86R
TYLER          CLEAR     57  40  52 S9        29.87S
LONGVIEW       PTCLDY    53  43  68 S6        29.88S
MARSHALL       CLOUDY    53  42  66 S5        29.91S
ATHENS         CLEAR     54  37  54 S7        29.86S
PALESTINE      CLEAR     58  40  51 SE6       29.89S
JACKSONVILLE   CLEAR     56  42  59 S7        29.90S
HENDERSON      PTCLDY    53  41  64 CALM      29.90S
CENTER         PTCLDY    51  40  67 S3        29.92S
NACOGDOCHES    PTCLDY    51  43  74 SE3       29.92R
LUFKIN         PTCLDY    51  43  74 SE6       29.92R
$$

SUPPLEMENTAL OBSERVATIONS (NWS FORT WORTH AREA)

CITY           SKY/WX    TMP DP  RH WIND       PRES   REMARKS
PAT MAYSE LAKE   N/A     61  34  36 SE10        N/A
GREENVILLE       N/A     61  39  44 S8          N/A
CEDAR HILL       N/A     64  36  34 S12G22      N/A
POSSUM KINGDOM   N/A     63  36  36 S8          N/A
GRANBURY         N/A     63  39  42 SE10        N/A
MCGREGOR         N/A     59  36  41 S8          N/A
TEMPLE           N/A     61  37  41 S5          N/A
$$

SUPPLEMENTAL OBSERVATIONS (NWS NORMAN AREA)

CITY           SKY/WX    TMP DP  RH WIND       PRES   REMARKS
GOODLETT         N/A     60  34  37 S6        29.70R
ODELL            N/A     64  38  38 SE10      29.72R
CROWELL          N/A     60  38  43 S7        29.71R
KNOX CITY        N/A     60  35  39 S8        29.71F
SEYMOUR          N/A     63  35  35 SE12      29.71S
MILLERS CREEK    N/A     61  37  41 S8          N/A
$$

SUPPLEMENTAL OBSERVATIONS (NWS SAN ANGELO AREA)

CITY           SKY/WX    TMP DP  RH WIND       PRES   REMARKS
WEINERT          N/A     64  37  36 S14       29.72S
HASKELL          N/A     62  34  35 S13       29.73S
THROCKMORTON     N/A     64  38  38 S12       29.74S
STAMFORD         N/A     60  38  44 S10       29.75S
CLYDE            N/A     65  37  35 S14       29.80S
HAMBY            N/A     64  36  34 S10         N/A
COLORADO BEND    N/A     61  36  39 S7          N/A
$$

SUPPLEMENTAL OBSERVATIONS (NWS SHREVEPORT AREA)

CITY           SKY/WX    TMP DP  RH WIND       PRES   REMARKS
CLARKSVILLE      N/A     57  37  47 S5          N/A
TEXARKANA        N/A     46  41  81 CALM        N/A
LINDEN           N/A     55  37  50 S1          N/A
GILMER           N/A     57  39  51 S3          N/A
HENDERSON        N/A     54  41  62 S1          N/A
LUFKIN           N/A     54  45  71 MISG        N/A
N SABINE NF      N/A     46  41  81 MISG        N/A
$$

SUPPLEMENTAL OBSERVATIONS ARE A COLLECTION OF AUTOMATED INSTRUMENTS
THAT ARE MAINTAINED BY A VARIETY OF FEDERAL AND STATE AGENCIES.
CERTAIN ELEMENTS...SUCH AS HUMIDITY VALUES AND SUSTAINED WIND
SPEEDS...MAY BE APPROXIMATED.




USA.gov is the U.S. government's official web portal to all federal, state and local government web resources and services.